Location: Recife
(8.0585°S, 34.8848°W)
Time: 13:11:47
(UTC-03:00)

Injun/Solrad 3 - Pass Details

Date: 23 April 2026
Orbit: 868 x 988 km, 66.8° (Epoch: 12 May)

Event Time Altitude Azimuth Distance (km) Brightness Sun altitude
Rises 05:54:34 0° 358° (N) 3,677 11.2 7.1°
Reaches altitude 10° 05:57:20 10° 6° (N) 2,730 10.7 7.8°
Maximum altitude 06:03:11 38° 71° (ENE) 1,458 10.3 9.2°
Drops below altitude 10° 06:08:57 10° 137° (SE) 2,703 10.8 10.5°
Sets 06:11:40 0° 145° (SE) 3,636 11.3 11.2°
